[[{"header":{"parameterUnit":"m.s-1","parameterCategory":1,"la1":30.2991,"la2":30.254,"lo1":-89.0895,"lo2":-89.0444,"dy":0.0017,"dx":0.0017,"nx":28,"ny":28,"refTime":"2025-12-27T09:00:00:Z","depth":0,"parameterNumber":2,"parameterNumberName":"U-component_of_WINDS"},"data":[0,0,0,0,0,0,0,0,0,0,0,0,0,0,0,0,0,0,0,0,0,0,0,0,0,0,0,0,0,0,0,0,0,0,0,0,0,0,0,0,0,0,0,0,0,0,0,0,0,0,0,0,0,0,0,0,0,0,0.3644,0.3645,0,0.3704,0.3705,0.3706,0.3747,0.3747,0.3747,0.3748,0.3813,0.3815,0.3816,0,0,0,0,0,0,0,0,0,0,0,0,0,0.3568,0.3569,0.3644,0.3645,0.3646,0.3704,0.3705,0.3706,0.3747,0.3747,0.3747,0.3748,0.3813,0.3814,0.3816,0,0,0,0,0,0,0,0,0,0,0,0,0,0.3612,0.3569,0.3644,0.3673,0.3676,0.3704,0.3705,0.3706,0.3747,0.3747,0.3747,0.3748,0.3812,0.3814,0.3816,0.3822,0,0,0.3823,0.3824,0,0,0,0,0,0,0,0,0.3609,0.3614,0.3668,0.3671,0.3675,0.3718,0.3702,0.3745,0.3746,0.372,0.3748,0.3748,0.3782,0.3786,0.3797,0.3825,0.3827,0.3823,0.3825,0.3826,0.3826,0,0,0,0,0,0,0,0.3606,0.3612,0.3668,0.3669,0.3673,0.3684,0.3691,0.371,0.3748,0.3722,0.3725,0.3732,0.3784,0.3795,0.3799,0.3828,0.3823,0.3825,0.3827,0.3828,0.3863,0.3862,0,0,0,0,0,0,0.3598,0.3609,0.3666,0.367,0.3642,0.3685,0.3692,0.3704,0.3748,0.3755,0.3731,0.3733,0.3791,0.3796,0.3801,0.381,0.3826,0.3828,0.3829,0.3863,0.3863,0.3862,0,0,0,0,0,0,0.3596,0.3603,0.3664,0.364,0.3649,0.3686,0.3698,0.3705,0.3716,0.3754,0.3762,0.3736,0.3791,0.3798,0.3816,0.3813,0.3829,0.3831,0.3864,0.3863,0.3863,0.3827,0,0,0,0,0,0,0.3594,0.3602,0.3603,0.364,0.365,0.3676,0.3698,0.3706,0.3719,0.3723,0.376,0.3767,0.3792,0.3812,0.3818,0.3816,0.3833,0.3864,0.3863,0.3863,0.3829,0.3825,0.3822,0,0,0,0,0,0.3591,0.3592,0.3603,0.361,0.3653,0.3676,0.3682,0.371,0.3719,0.3721,0.3746,0.3766,0.3812,0.3814,0.3821,0.3819,0.3865,0.3864,0.3863,0.383,0.3826,0.3822,0,0,0,0,0,0,0.3556,0.3597,0.361,0.3623,0.3646,0.3683,0.3687,0.3704,0.3726,0.3728,0.3763,0.3771,0.3785,0.3804,0.3805,0.3826,0.3841,0.3841,0.3813,0.381,0.3806,0.3802,0.3834,0,0,0,0,0,0.3549,0.3564,0.36,0.3608,0.3618,0.365,0.3662,0.368,0.3706,0.3716,0.3742,0.3766,0.3786,0.3799,0.3819,0.3831,0.384,0.3833,0.383,0.3827,0.3828,0.3835,0.3832,0.3859,0.3859,0.3859,0,0,0.3537,0.3561,0.3569,0.3601,0.3621,0.3636,0.3658,0.3673,0.3685,0.3719,0.3737,0.3756,0.3786,0.38,0.3808,0.3817,0.3822,0.3826,0.3824,0.3826,0.3834,0.3831,0.3829,0.3859,0.3859,0.3859,0,0,0.3521,0.3541,0.355,0.3568,0.3597,0.3618,0.362,0.3654,0.3668,0.3686,0.3711,0.3726,0.376,0.378,0.3794,0.3784,0.3803,0.379,0.3774,0.378,0.3778,0.3776,0.3773,0.3771,0.379,0.379,0.379,0,0.3503,0.3525,0.3552,0.3565,0.3579,0.3608,0.3617,0.3634,0.3669,0.3678,0.3686,0.3728,0.375,0.3769,0.3767,0.3777,0.3781,0.3786,0.3776,0.3775,0.3773,0.3771,0.3769,0.3788,0.3788,0.3788,0.3788,0,0.35,0.3515,0.3519,0.3549,0.3563,0.3574,0.3604,0.3615,0.3632,0.3653,0.367,0.3698,0.3724,0.373,0.3747,0.3751,0.3755,0.3769,0.3785,0.3769,0.3766,0.3765,0.3785,0.3786,0.3786,0.3787,0,0,0.3466,0.351,0.3511,0.3525,0.3558,0.357,0.3582,0.3606,0.3615,0.3638,0.3649,0.3676,0.3688,0.3705,0.3725,0.3731,0.3721,0.3744,0.3745,0.3739,0.3726,0.3716,0.3714,0.3733,0.3733,0.3733,0.3724,0,0.3456,0.3479,0.3503,0.3517,0.3531,0.3558,0.3569,0.359,0.3609,0.3625,0.3647,0.3665,0.368,0.369,0.3697,0.372,0.3719,0.3721,0.3745,0.3745,0.3737,0.3713,0.3702,0.3692,0.3723,0.3723,0.3723,0,0.3448,0.3467,0.3482,0.3512,0.3519,0.3528,0.3552,0.3566,0.3591,0.3604,0.3621,0.3642,0.3657,0.367,0.3691,0.3692,0.3703,0.3716,0.3716,0.372,0.3734,0.3717,0.369,0.3688,0.3722,0.3722,0.3722,0,0.3422,0.3451,0.3464,0.3475,0.3511,0.3516,0.3532,0.3557,0.3569,0.359,0.3598,0.3621,0.3633,0.3651,0.3677,0.3684,0.3695,0.371,0.3707,0.3707,0.371,0.3709,0.3685,0.3716,0.3716,0.3716,0.3716,0,0.3408,0.3417,0.3452,0.346,0.347,0.3498,0.3507,0.3525,0.3547,0.3559,0.3584,0.3596,0.3629,0.3645,0.3666,0.368,0.3685,0.3697,0.3703,0.3695,0.3694,0.3704,0.3705,0.3715,0.3715,0.3715,0.3715,0,0.3381,0.3405,0.3421,0.3453,0.3461,0.3467,0.3495,0.3503,0.3523,0.3538,0.3543,0.3575,0.3594,0.3621,0.365,0.3664,0.3675,0.3684,0.3666,0.3669,0.3665,0.3665,0.3646,0.3645,0.3676,0.3676,0.3675,0,0.3371,0.3378,0.341,0.3419,0.3433,0.3448,0.346,0.3487,0.3499,0.3527,0.3533,0.3553,0.3571,0.3601,0.3627,0.3648,0.3658,0.365,0.3662,0.3653,0.3658,0.3657,0.3658,0.3647,0.3647,0.3647,0.3646,0,0.3351,0.3362,0.3378,0.3398,0.3411,0.3429,0.3447,0.3454,0.3485,0.3497,0.3516,0.353,0.3557,0.3578,0.3602,0.3619,0.3638,0.3642,0.3643,0.3635,0.3625,0.363,0.3659,0.3643,0.3643,0.3643,0.3644,0.3644,0.3333,0.334,0.3363,0.3379,0.3396,0.3412,0.3421,0.3441,0.3457,0.3481,0.3496,0.3514,0.3538,0.3573,0.3589,0.3604,0.3612,0.3612,0.3613,0.3613,0.361,0.3621,0.3608,0.3609,0.3609,0.3609,0.3609,0,0.3314,0.333,0.3345,0.3369,0.3382,0.3396,0.3417,0.3427,0.3443,0.3463,0.3479,0.3501,0.352,0.3547,0.3568,0.3575,0.3584,0.358,0.358,0.3584,0.3602,0.3599,0.3572,0.3572,0.3572,0.3572,0.3572,0.3572,0.3306,0.3318,0.3332,0.3352,0.3368,0.3385,0.3395,0.3411,0.3427,0.3449,0.3465,0.3481,0.3504,0.3527,0.3545,0.3553,0.356,0.3553,0.3563,0.3579,0.3583,0.3586,0.3583,0.3554,0.3554,0.3544,0.3544,0.3544]},{"header":{"parameterUnit":"m.s-1","parameterCategory":1,"la1":30.2991,"la2":30.254,"lo1":-89.0895,"lo2":-89.0444,"dy":0.0017,"dx":0.0017,"nx":28,"ny":28,"refTime":"2025-12-27T09:00:00:Z","depth":0,"parameterNumber":3,"parameterNumberName":"V-component_of_WINDS"},"data":[0,0,0,0,0,0,0,0,0,0,0,0,0,0,0,0,0,0,0,0,0,0,0,0,0,0,0,0,0,0,0,0,0,0,0,0,0,0,0,0,0,0,0,0,0,0,0,0,0,0,0,0,0,0,0,0,0,0,2.0166,2.0166,0,2.0175,2.0175,2.0175,2.0153,2.0152,2.0151,2.015,2.016,2.016,2.0161,0,0,0,0,0,0,0,0,0,0,0,0,0,2.0127,2.0128,2.0166,2.0166,2.0166,2.0175,2.0175,2.0175,2.0153,2.0152,2.0151,2.015,2.0159,2.016,2.0161,0,0,0,0,0,0,0,0,0,0,0,0,0,2.0141,2.0129,2.0166,2.0156,2.0155,2.0175,2.0175,2.0175,2.0153,2.0152,2.0151,2.015,2.0159,2.016,2.0162,2.0192,0,0,2.0166,2.0166,0,0,0,0,0,0,0,0,2.014,2.0143,2.0157,2.0157,2.0156,2.0162,2.0165,2.0181,2.0153,2.0154,2.015,2.0149,2.0161,2.0162,2.0166,2.0192,2.0192,2.0166,2.0167,2.0167,2.0168,0,0,0,0,0,0,0,2.014,2.0142,2.0169,2.0157,2.0157,2.0151,2.0151,2.0168,2.0163,2.0154,2.0152,2.0153,2.016,2.0165,2.0166,2.0193,2.0166,2.0167,2.0168,2.0168,2.0243,2.0244,0,0,0,0,0,0,2.014,2.0141,2.0169,2.017,2.0145,2.0152,2.0153,2.0161,2.0163,2.0162,2.0154,2.0152,2.0163,2.0165,2.0167,2.0202,2.0167,2.0169,2.0169,2.0242,2.0243,2.0245,0,0,0,0,0,0,2.0139,2.0143,2.0169,2.0155,2.0158,2.0154,2.0163,2.0162,2.0166,2.0164,2.0163,2.016,2.0162,2.0165,2.0186,2.0202,2.0169,2.017,2.0241,2.0242,2.0244,2.0274,0,0,0,0,0,0,2.0138,2.0143,2.0154,2.0156,2.0159,2.0188,2.0164,2.0163,2.0169,2.0166,2.0169,2.0168,2.0162,2.0184,2.0187,2.0203,2.0171,2.0239,2.0241,2.0244,2.0271,2.0276,2.028,0,0,0,0,0,2.0137,2.0162,2.0155,2.0158,2.0173,2.0189,2.0191,2.0183,2.017,2.0182,2.018,2.0168,2.02,2.0186,2.0189,2.0207,2.0238,2.0241,2.0243,2.0269,2.0275,2.028,0,0,0,0,0,0,2.0163,2.0162,2.0154,2.0181,2.0185,2.0185,2.02,2.019,2.0198,2.0196,2.0186,2.0186,2.0209,2.021,2.0195,2.0236,2.0217,2.022,2.0235,2.0241,2.0245,2.0245,2.0173,0,0,0,0,0,2.0171,2.0184,2.0183,2.0206,2.0209,2.0204,2.021,2.0204,2.0208,2.021,2.021,2.0214,2.0225,2.0233,2.0243,2.0271,2.0271,2.0284,2.0289,2.0292,2.0296,2.0311,2.0317,2.0253,2.0253,2.0253,0,0,2.019,2.0191,2.02,2.0211,2.0214,2.0228,2.0206,2.0221,2.0231,2.0212,2.0233,2.0232,2.0236,2.0261,2.0272,2.0262,2.0313,2.0296,2.0299,2.03,2.0314,2.032,2.0326,2.0255,2.0255,2.0255,0,0,2.023,2.0232,2.0252,2.0255,2.0259,2.0256,2.026,2.0262,2.0261,2.0281,2.0268,2.0279,2.0298,2.0302,2.0306,2.0347,2.0336,2.035,2.0375,2.039,2.0395,2.0399,2.0414,2.042,2.0353,2.0353,2.0353,0,2.0252,2.0272,2.0263,2.028,2.0285,2.0269,2.0289,2.0292,2.0299,2.0304,2.0292,2.0316,2.0317,2.0343,2.0353,2.0357,2.0362,2.035,2.0395,2.0399,2.0403,2.0417,2.0423,2.0355,2.0355,2.0355,2.0355,0,2.0299,2.0314,2.0329,2.0337,2.0344,2.0362,2.0355,2.0363,2.0356,2.0354,2.0374,2.0375,2.0385,2.039,2.0383,2.0415,2.0409,2.0396,2.0377,2.0411,2.0424,2.043,2.0358,2.0357,2.0356,2.0356,0,0,2.0357,2.0359,2.0365,2.0369,2.0372,2.0383,2.04,2.0409,2.0417,2.0422,2.0436,2.0452,2.0441,2.0446,2.0439,2.0452,2.0485,2.0437,2.0437,2.0447,2.052,2.053,2.0536,2.0477,2.0478,2.0479,2.052,0,2.0398,2.0428,2.042,2.0449,2.0462,2.0446,2.0461,2.0465,2.0462,2.0473,2.047,2.0482,2.0465,2.0468,2.048,2.0478,2.0499,2.0475,2.049,2.0491,2.0491,2.0543,2.0554,2.0593,2.0525,2.0526,2.0526,0,2.045,2.0457,2.0488,2.0489,2.0494,2.0508,2.0516,2.0526,2.0529,2.0527,2.0532,2.0522,2.0539,2.0519,2.0541,2.0525,2.0531,2.053,2.0532,2.0534,2.0512,2.0548,2.0605,2.0611,2.0534,2.0534,2.0533,0,2.049,2.0507,2.0528,2.0531,2.0533,2.0543,2.0544,2.0546,2.0553,2.0559,2.0563,2.0572,2.0577,2.0584,2.0577,2.0562,2.0601,2.058,2.0599,2.06,2.0609,2.0609,2.0669,2.0611,2.0611,2.0611,2.0611,0,2.0536,2.0556,2.0546,2.0559,2.0581,2.0571,2.0592,2.0592,2.0594,2.0606,2.0592,2.0604,2.0593,2.0604,2.0598,2.0618,2.062,2.0619,2.0618,2.0621,2.0621,2.0625,2.0623,2.0612,2.0612,2.0612,2.0611,0,2.0586,2.058,2.0602,2.0601,2.0601,2.0617,2.0617,2.0629,2.0625,2.0641,2.0644,2.0638,2.065,2.0643,2.0655,2.0652,2.0678,2.0672,2.0677,2.0676,2.0696,2.0695,2.0762,2.077,2.0706,2.0707,2.0707,0,2.0617,2.0631,2.0632,2.064,2.0642,2.0654,2.066,2.065,2.0657,2.0662,2.0674,2.0684,2.0692,2.0712,2.0709,2.0718,2.0713,2.0736,2.0715,2.0718,2.0715,2.0714,2.0716,2.0741,2.0742,2.0742,2.0743,0,2.0672,2.0668,2.0678,2.0687,2.0695,2.0701,2.0706,2.0713,2.0703,2.0712,2.0724,2.073,2.0743,2.0754,2.0761,2.0762,2.0751,2.0749,2.0754,2.0759,2.0761,2.0761,2.069,2.0748,2.0748,2.0747,2.0747,2.0747,2.0714,2.0726,2.0729,2.074,2.0743,2.0748,2.0759,2.0757,2.0767,2.0776,2.077,2.0784,2.0786,2.0796,2.0798,2.0809,2.08,2.0807,2.0809,2.0811,2.0814,2.0759,2.081,2.081,2.081,2.0809,2.0809,0,2.0769,2.077,2.078,2.0788,2.0797,2.0785,2.079,2.0798,2.0811,2.0814,2.0823,2.0837,2.0847,2.0844,2.0854,2.0863,2.0858,2.0866,2.0866,2.0866,2.0822,2.0817,2.087,2.087,2.087,2.087,2.087,2.0869,2.08,2.082,2.0817,2.0838,2.0839,2.0853,2.0857,2.0861,2.0864,2.088,2.0889,2.0887,2.0888,2.0897,2.0906,2.0904,2.0909,2.0919,2.0916,2.0875,2.0869,2.0863,2.0859,2.092,2.092,2.096,2.096,2.096]}]]